NEPT-1 (48966 NORAD) Tracking and Keplerian Element Data

This shows tracking and keplerian element data for the satellite.

Feedback or suggestion? Click here.




ElementValue
Catalog48966
NameNEPT-1
Epoch Orbit1396
Epoch Day269.17525757
Epoch Year2021
RAAN36.6152
Inclination97.5126
Eccentricity0.0007514
Argument of Perigee288.3149
Mean Anonmoly193.7167
Mean Motion15.13252926
Decay Rate1.37E-05
L11 48966U 21059CR 21269.17525757 .00001370 00000-0 80698-4 0 9995
L22 48966 97.5126 36.6152 0007514 288.3149 193.7167 15.13252926 13969

Live tracking and technical data element details for NEPT-1 (NORAD 48966). NEPT-1 can be tracked NOW for your location showing map with azimuth and elevation plus other details from your city location.

Track the satellite on the map from your city or location and see movement details for azimuth, elevation, latitude, longitude, range, height, and movement on the map or in text.







IsCatalogInMostPopularTable: catalog: 48966, numindb: 12
Update: records affected: 1



GetName: 48966 NEPT-1

Hit Count: updated at: Sun, 26 Sep 2021 14:57:47 GMT